Regional Weather Roundup
Issued by NWS Midland/Odessa, TX

Skip options and go directly to product.
Home | Oldest Version | Next Version | Current Version | All | Text Only | Save Text | Print | Product List | Glossary On

Skip product version selection by date and time.   
032
ASUS44 KMAF 010510
RWRMAF
MIDLAND AREA WEATHER ROUNDUP
NATIONAL WEATHER SERVICE MIDLAND TX
1200 AM CDT WED OCT 01 2014

...IN SOUTHWEST TEXAS AND SOUTHEAST NEW MEXICO...

CITY           SKY/WX    TMP DP  RH WIND       PRES   REMARKS
ALPINE         CLEAR     69  56  61 SW9       29.99S
ANDREWS        FAIR      74  62  66 S10G18    29.83S
ARTESIA        NOT AVBL
BIG SPRING     CLEAR     79  63  58 S14       29.83S
CARLSBAD       CLEAR     65  54  67 W8        29.82S
DRYDEN           N/A     76  66  71 E5        29.80S
FORT STOCKTON  CLEAR     73  62  68 S14       29.82F
GUAD PASS      CLEAR     66  46  48 SW8       29.99S
HOBBS          CLEAR     64  54  68 W8        29.85F
MARFA          CLEAR     61  54  77 E3        29.98F
MIDLAND AIRPK  NOT AVBL
MIDLAND INTL   PTCLDY    76  63  64 S13G21    29.83R
ODESSA         PTCLDY    75  63  66 S12       29.84S
PECOS          CLEAR     70  60  70 E7        29.78F
PRESIDIO       FAIR      78  60  53 N9        29.81S
SEMINOLE       PTCLDY    67  55  65 S7        29.84F
SNYDER         CLEAR     72  64  76 S9        29.80S
WINK           CLEAR     75  61  61 SE9       29.80S
$$
...OTHER STATIONS IN TEXAS...

CITY           SKY/WX    TMP DP  RH WIND       PRES   REMARKS
ABILENE        CLEAR     77  60  55 S15       29.79S
AMARILLO       CLEAR     59  47  64 S7        29.80S
AUSTIN         CLEAR     74  71  91 S5        29.80S
BROWNSVILLE    CLEAR     75  75 100 S5        29.80S
CORPUS CHRISTI PTCLDY    76  74  93 SE5       29.79S
DALLAS FTW     CLEAR     81  68  64 S12       29.76S
DEL RIO        CLEAR     77  67  71 SE6       29.77S
EL PASO        CLEAR     77  33  20 CALM      29.88S
HOUSTON INT    MOCLDY    76  74  93 SE3       29.81R
LUBBOCK        PTCLDY    66  54  65 S5        29.80S
SAN ANGELO     CLEAR     76  61  59 S7        29.81S
SAN ANTONIO    CLEAR     78  71  79 S10       29.81S
WACO           CLEAR     78  67  68 SE10      29.78F
WICHITA FALLS  NOT AVBL
$$
...OTHER LOCATIONS IN NEW MEXICO...

CITY           SKY/WX    TMP DP  RH WIND       PRES   REMARKS
ALAMAGORDO     PTCLDY    63  41  45 SE8       29.90S
ALBUQUERQUE    CLEAR     62  33  33 N5        29.96S
CANNON AFB     CLEAR     64  46  51 W8        29.86S
CLOVIS           N/A     57  46  67 W9        29.88S
HOLLOMAN AFB   PTCLDY    65  38  37 S7        29.88S
ROSWELL        CLEAR     62  47  57 W7        29.83S
RUIDOSO        CLEAR     55  30  38 W5        30.05S
SANTA FE       CLEAR     52  31  44 N13       29.99S
TRUTH OR CONSE CLEAR     66  37  34 W10       29.92R
TUCUMCARI      CLEAR     63  41  44 W16       29.81S
$$

USA.gov is the U.S. government's official web portal to all federal, state and local government web resources and services.